Location: Palmerston North
(40.3500°S, 175.6170°E)
Time: 03:59:56
(UTC+13:00)

ATLAS 3B R/B - Pass Details

Date: 24 January 2019
Orbit: 1021 x 1174 km, 63.8° (Epoch: 17 February)

Event Time Altitude Azimuth Distance (km) Brightness Sun altitude
Exits shadow 22:18:31 20° 65° (ENE) 2,310 3.9 -15.7°
Maximum altitude 22:19:16 21° 74° (ENE) 2,299 3.9 -15.8°
Drops below altitude 10° 22:24:17 10° 118° (ESE) 3,037 4.9 -16.5°
Sets 22:27:47 0° 133° (SE) 4,029 5.7 -17.0°
